• In Czech Republic
  • List of Countries
  • For 7 days
  • Water Temperature
  • Satellite Maps
  • Weather Map
  • Weather Widgets
  • user-avatar
    Login

    Hourly Weather Saidpur

    Today, 22 January, Monday

    Time Temperature Precipitation Wind Pressure Humidity
    00:00 +18°C° 0 mm 2 mps 756 mmHg 49%
    01:00 +18°C° 0 mm 2 mps 756 mmHg 49%
    02:00 +17°C° 0 mm 2 mps 756 mmHg 49%
    03:00 +17°C° 0 mm 2 mps 756 mmHg 49%
    04:00 +16°C° 0 mm 2 mps 756 mmHg 50%
    05:00 +16°C° 0 mm 2 mps 756 mmHg 51%
    06:00 +15°C° 0 mm 1 mps 756 mmHg 52%
    07:00 +17°C° 0 mm 2 mps 757 mmHg 49%
    08:00 +18°C° 0 mm 2 mps 757 mmHg 47%
    09:00 +19°C° 0 mm 2 mps 758 mmHg 44%
    10:00 +21°C° 0 mm 2 mps 757 mmHg 40%
    11:00 +23°C° 0 mm 1 mps 757 mmHg 37%
    12:00 +25°C° 0 mm 1 mps 757 mmHg 33%
    13:00 +26°C° 0 mm 1 mps 756 mmHg 31%
    14:00 +26°C° 0 mm 1 mps 756 mmHg 28%
    15:00 +27°C° 0 mm 1 mps 755 mmHg 26%
    16:00 +26°C° 0 mm 1 mps 755 mmHg 28%
    17:00 +25°C° 0 mm 1 mps 755 mmHg 30%
    18:00 +23°C° 0 mm 1 mps 755 mmHg 32%
    19:00 +23°C° 0 mm 2 mps 755 mmHg 33%
    20:00 +21°C° 0 mm 2 mps 756 mmHg 35%
    21:00 +20°C° 0 mm 2 mps 756 mmHg 37%
    22:00 +20°C° 0 mm 2 mps 756 mmHg 39%
    23:00 +19°C° 0 mm 2 mps 756 mmHg 41%

    Tomorrow, 23 January, Tuesday

    Time Temperature Precipitation Wind Pressure Humidity
    00:00 +19°C° 0 mm 2 mps 756 mmHg 44%
    01:00 +18°C° 0 mm 2 mps 756 mmHg 46%
    02:00 +17°C° 0 mm 2 mps 756 mmHg 49%
    03:00 +17°C° 0 mm 2 mps 756 mmHg 52%
    04:00 +17°C° 0 mm 2 mps 756 mmHg 54%
    05:00 +16°C° 0 mm 2 mps 756 mmHg 57%
    06:00 +16°C° 0 mm 1 mps 755 mmHg 59%
    07:00 +18°C° 0 mm 1 mps 756 mmHg 57%
    08:00 +19°C° 0 mm 1 mps 756 mmHg 54%
    09:00 +20°C° 0 mm 1 mps 757 mmHg 51%
    10:00 +22°C° 0 mm 1 mps 757 mmHg 45%
    11:00 +24°C° 0 mm 1 mps 756 mmHg 40%
    12:00 +26°C° 0 mm 1 mps 756 mmHg 34%
    13:00 +27°C° 0 mm 1 mps 755 mmHg 31%
    14:00 +27°C° 0 mm 1 mps 754 mmHg 29%
    15:00 +28°C° 0 mm 1 mps 753 mmHg 27%
    16:00 +27°C° 0 mm 1 mps 753 mmHg 29%
    17:00 +25°C° 0 mm 1 mps 753 mmHg 31%
    18:00 +24°C° 0 mm 1 mps 753 mmHg 34%
    19:00 +24°C° 0 mm 1 mps 754 mmHg 35%
    20:00 +23°C° 0 mm 1 mps 754 mmHg 37%
    21:00 +22°C° 0 mm 1 mps 755 mmHg 38%
    22:00 +22°C° 0 mm 1 mps 755 mmHg 40%
    23:00 +21°C° 0 mm 1 mps 754 mmHg 41%

    Day after tomorrow, 24 January, Wednesday

    Time Temperature Precipitation Wind Pressure Humidity
    00:00 +21°C° 0 mm 1 mps 754 mmHg 43%
    01:00 +20°C° 0 mm 1 mps 754 mmHg 45%
    02:00 +20°C° 0 mm 1 mps 754 mmHg 47%
    03:00 +19°C° 0 mm 1 mps 753 mmHg 49%
    04:00 +19°C° 0 mm 1 mps 753 mmHg 50%
    05:00 +16°C° 0 mm 0 mps 753 mmHg 52%
    06:00 +16°C° 0 mm 0 mps 753 mmHg 53%
    07:00 +17°C° 0 mm 0 mps 754 mmHg 49%
    08:00 +21°C° 0 mm 1 mps 755 mmHg 45%
    09:00 +22°C° 0 mm 1 mps 755 mmHg 41%
    10:00 +24°C° 0 mm 1 mps 755 mmHg 37%
    11:00 +26°C° 0 mm 1 mps 755 mmHg 33%
    12:00 +28°C° 0 mm 1 mps 755 mmHg 28%
    13:00 +28°C° 0 mm 1 mps 754 mmHg 26%
    14:00 +29°C° 0 mm 1 mps 753 mmHg 25%
    15:00 +29°C° 0 mm 1 mps 752 mmHg 23%
    16:00 +28°C° 0 mm 1 mps 752 mmHg 26%
    17:00 +27°C° 0 mm 1 mps 752 mmHg 28%
    18:00 +26°C° 0 mm 1 mps 752 mmHg 30%
    19:00 +25°C° 0 mm 1 mps 752 mmHg 31%
    20:00 +25°C° 0 mm 1 mps 753 mmHg 32%
    21:00 +24°C° 0 mm 1 mps 754 mmHg 33%
    22:00 +24°C° 0 mm 1 mps 754 mmHg 34%
    23:00 +24°C° 0 mm 1 mps 754 mmHg 35%

    25 January, Thursday

    Time Temperature Precipitation Wind Pressure Humidity
    00:00 +24°C° 0 mm 1 mps 754 mmHg 36%
    01:00 +23°C° 0 mm 1 mps 753 mmHg 38%
    02:00 +22°C° 0 mm 1 mps 753 mmHg 41%
    03:00 +20°C° 0 mm 2 mps 753 mmHg 43%
    04:00 +20°C° 0 mm 2 mps 753 mmHg 45%
    05:00 +19°C° 0 mm 2 mps 753 mmHg 47%
    06:00 +18°C° 0 mm 2 mps 754 mmHg 48%
    07:00 +19°C° 0 mm 2 mps 754 mmHg 46%
    08:00 +20°C° 0 mm 2 mps 755 mmHg 44%
    09:00 +21°C° 0 mm 2 mps 756 mmHg 42%
    10:00 +24°C° 0 mm 2 mps 756 mmHg 38%
    11:00 +25°C° 0 mm 2 mps 756 mmHg 35%
    12:00 +27°C° 0 mm 2 mps 755 mmHg 31%
    13:00 +28°C° 0 mm 2 mps 755 mmHg 30%
    14:00 +28°C° 0 mm 2 mps 754 mmHg 30%
    15:00 +29°C° 0 mm 1 mps 753 mmHg 29%
    16:00 +28°C° 0 mm 2 mps 753 mmHg 31%
    17:00 +26°C° 0 mm 2 mps 753 mmHg 33%
    18:00 +25°C° 0 mm 2 mps 753 mmHg 35%
    19:00 +24°C° 0 mm 2 mps 754 mmHg 38%
    20:00 +24°C° 0 mm 2 mps 754 mmHg 40%
    21:00 +22°C° 0 mm 3 mps 755 mmHg 42%
    22:00 +21°C° 0 mm 3 mps 755 mmHg 45%
    23:00 +20°C° 0 mm 3 mps 755 mmHg 47%

    26 January, Friday

    Time Temperature Precipitation Wind Pressure Humidity
    00:00 +20°C° 0 mm 3 mps 755 mmHg 50%
    01:00 +19°C° 0 mm 2 mps 755 mmHg 52%
    02:00 +19°C° 0 mm 2 mps 755 mmHg 54%
    03:00 +18°C° 0 mm 2 mps 754 mmHg 56%
    04:00 +18°C° 0 mm 2 mps 755 mmHg 57%
    05:00 +17°C° 0 mm 2 mps 755 mmHg 58%
    06:00 +17°C° 0 mm 2 mps 755 mmHg 60%
    07:00 +18°C° 0 mm 2 mps 755 mmHg 56%
    08:00 +19°C° 0 mm 2 mps 756 mmHg 52%
    09:00 +20°C° 0 mm 2 mps 757 mmHg 49%
    10:00 +23°C° 0 mm 2 mps 757 mmHg 44%
    11:00 +25°C° 0 mm 2 mps 756 mmHg 40%
    12:00 +26°C° 0 mm 2 mps 756 mmHg 36%
    13:00 +27°C° 0 mm 2 mps 755 mmHg 34%
    14:00 +27°C° 0 mm 2 mps 754 mmHg 32%
    15:00 +28°C° 0 mm 2 mps 754 mmHg 30%
    16:00 +26°C° 0 mm 2 mps 754 mmHg 32%
    17:00 +25°C° 0 mm 2 mps 754 mmHg 35%
    18:00 +24°C° 0 mm 3 mps 753 mmHg 38%
    19:00 +22°C° 0 mm 3 mps 754 mmHg 41%
    20:00 +21°C° 0 mm 3 mps 754 mmHg 44%
    21:00 +21°C° 0 mm 3 mps 755 mmHg 46%
    22:00 +20°C° 0 mm 3 mps 755 mmHg 48%
    23:00 +19°C° 0 mm 3 mps 755 mmHg 50%

    27 January, Saturday

    Time Temperature Precipitation Wind Pressure Humidity
    00:00 +19°C° 0 mm 3 mps 755 mmHg 52%
    01:00 +18°C° 0 mm 2 mps 755 mmHg 54%
    02:00 +18°C° 0 mm 2 mps 754 mmHg 55%
    03:00 +17°C° 0 mm 2 mps 754 mmHg 57%
    04:00 +17°C° 0 mm 2 mps 754 mmHg 59%
    05:00 +16°C° 0 mm 2 mps 754 mmHg 61%
    06:00 +16°C° 0 mm 2 mps 755 mmHg 62%
    07:00 +17°C° 0 mm 2 mps 755 mmHg 59%
    08:00 +18°C° 0 mm 2 mps 756 mmHg 56%
    09:00 +19°C° 0 mm 2 mps 757 mmHg 52%
    10:00 +20°C° 0 mm 3 mps 756 mmHg 47%
    11:00 +22°C° 0 mm 3 mps 756 mmHg 42%
    12:00 +25°C° 0 mm 3 mps 756 mmHg 37%
    13:00 +25°C° 0 mm 3 mps 755 mmHg 33%
    14:00 +26°C° 0 mm 4 mps 755 mmHg 29%
    15:00 +26°C° 0 mm 4 mps 754 mmHg 25%
    16:00 +25°C° 0 mm 4 mps 754 mmHg 28%
    17:00 +24°C° 0 mm 3 mps 754 mmHg 31%
    18:00 +21°C° 0 mm 3 mps 754 mmHg 33%
    19:00 +20°C° 0 mm 3 mps 754 mmHg 36%
    20:00 +20°C° 0 mm 3 mps 755 mmHg 39%
    21:00 +19°C° 0 mm 2 mps 755 mmHg 42%
    22:00 +18°C° 0 mm 2 mps 755 mmHg 44%
    23:00 +18°C° 0 mm 2 mps 755 mmHg 46%
    Show more